Location: *
(49.4547°N, 7.9131°E)
Time: 01:01:13
(UTC+00:00)

Meteor 1-15 Rocket - Pass Details

Date: 22 September 2019
Orbit: 840 x 907 km, 81.2° (Epoch: 22 October)

Event Time Altitude Azimuth Distance (km) Brightness Sun altitude
Rises 18:42:18 0° 184° (S) 3,462 7.3 -12.9°
Reaches altitude 10° 18:44:43 10° 183° (S) 2,538 6.6 -13.3°
Maximum altitude 18:50:29 76° 99° (E) 927 4.2 -14.2°
Drops below altitude 10° 18:56:23 10° 15° (NNE) 2,593 6.8 -15.1°
Sets 18:58:53 0° 14° (NNE) 3,543 7.5 -15.4°
